Hourly Data Report for October 01, 2003

TORONTO CITY
ONTARIO

43°40'00.000" N
79°24'00.000" W
112.50 m
6158355
71508
XTO

Download Data

Hourly Data (October 2003)
Hourly Data Report for October 1, 2003
TIME
LST
Temp Definition
°C
Dew Point Definition
°C
Rel Hum Definition
%
Precip. Amount Definition
mm

Wind Dir Definition
10's deg

Wind Spd Definition
km/h
Visibility Definition
km
Stn Press Definition
kPa
Hmdx Definition


Wind Chill Definition


Weather Definition


00:00 7.7 2.8 71   LegendMM LegendMM LegendMM 100.60     LegendNANA
01:00 7.2 2.8 74   LegendMM LegendMM LegendMM 100.63     LegendNANA
02:00 6.8 2.9 76   LegendMM LegendMM LegendMM 100.63     LegendNANA
03:00 6.2 2.9 79   LegendMM LegendMM LegendMM 100.59     LegendNANA
04:00 5.9 2.8 80   LegendMM LegendMM LegendMM 100.57     LegendNANA
05:00 5.3 2.1 80   LegendMM LegendMM LegendMM 100.55     LegendNANA
06:00 5.2 1.6 78   LegendMM LegendMM LegendMM 100.58     LegendNANA
07:00 4.9 1.5 79   LegendMM LegendMM LegendMM 100.60     LegendNANA
08:00 6.6 2.0 72   LegendMM LegendMM LegendMM 100.55     LegendNANA
09:00 8.8 2.2 63   LegendMM LegendMM LegendMM 100.54     LegendNANA
10:00 10.7 1.4 53   LegendMM LegendMM LegendMM 100.50     LegendNANA
11:00 11.3 3.4 58   LegendMM LegendMM LegendMM 100.46     LegendNANA
12:00 10.0 3.1 62   LegendMM LegendMM LegendMM 100.43     LegendNANA
13:00 11.5 2.1 52   LegendMM LegendMM LegendMM 100.31     LegendNANA
14:00 11.5 0.3 46   LegendMM LegendMM LegendMM 100.26     LegendNANA
15:00 11.3 -1.2 42   LegendMM LegendMM LegendMM 100.22     LegendNANA
16:00 11.0 1.1 50   LegendMM LegendMM LegendMM 100.18     LegendNANA
17:00 10.3 1.1 53   LegendMM LegendMM LegendMM 100.26     LegendNANA
18:00 7.4 4.0 79   LegendMM LegendMM LegendMM 100.27     LegendNANA
19:00 5.9 3.3 83   LegendMM LegendMM LegendMM 100.26     LegendNANA
20:00 5.9 3.6 85   LegendMM LegendMM LegendMM 100.27     LegendNANA
21:00 5.5 2.6 82   LegendMM LegendMM LegendMM 100.24     LegendNANA
22:00 5.3 2.9 84   LegendMM LegendMM LegendMM 100.21     LegendNANA
23:00 4.8 2.7 86   LegendMM LegendMM LegendMM 100.19     LegendNANA

Notes on Data Quality.

Legend

  • E = Estimated
  • M = Missing
  • NA = Not Available*
  • [empty] = Indicates an unobserved value
Date modified: